| Back to River Map | <<< Previous Forecast Point | | | Next Forecast Point >>> | Printer Version | Graph Version |  |
|
PACHECO CREEK - DUNNEVILLE (PHOC1)
| Latitude: 36.98º N | Longitude: 121.38º W | Elevation: 233 Feet | | Forecast Type: Unofficial Location |
| Location: Santa Clara County in California | Bulletin Group: Central Coast | River Group: Salinas/Pajaro |
| Issuance Time: | May 07 2026 at 7:37 AM PDT | Next Issuance: | May 08 2026 at 9:00 AM PDT
| |
| Action/Monitor: 10.0 Feet | Minor Flood: N/A | Moderate Flood: 12.0 Feet | Major Flood: N/A |
# Tabular Observed and Forecast Hydrograph Information
#
# Location: Pacheco Creek - Dunneville (PHOC1)
#
# File Generation Time: 05/07/2026 at 07:38 AM PDT
# Data Interval: 1 Hour
#
# Most Recent Date & Time of Maximum Observed: 05/02/2026 at 08:00 PM PDT
# Maximum Observed Stage: 2.76 Feet
# Maximum Observed Flow: 12 cfs
#
# Earliest Date & Time of Maximum Forecast: 05/07/2026 at 08:00 AM PDT
# Maximum Forecast Stage: 2.64 Feet
# Maximum Forecast Flow: 7 cfs
#
# OBSERVED
#
# Date & Time (Local) Stage (Feet) Flow (cfs) Trend Observed Status
# ---------------------------------------------------------------------------------
05/02/2026 07 AM PDT 2.73 10 Normal
05/02/2026 08 AM PDT 2.72 10 - Normal
05/02/2026 09 AM PDT 2.72 10 0 Normal
05/02/2026 10 AM PDT 2.72 10 0 Normal
05/02/2026 11 AM PDT 2.72 10 0 Normal
05/02/2026 12 PM PDT 2.71 9 - Normal
05/02/2026 01 PM PDT 2.71 9 0 Normal
05/02/2026 02 PM PDT 2.71 9 0 Normal
05/02/2026 03 PM PDT 2.70 9 - Normal
05/02/2026 04 PM PDT 2.70 9 0 Normal
05/02/2026 05 PM PDT 2.72 10 + Normal
05/02/2026 06 PM PDT 2.74 11 + Normal
05/02/2026 07 PM PDT 2.74 11 0 Normal
05/02/2026 08 PM PDT 2.76 12 + Normal
05/02/2026 09 PM PDT 2.75 11 - Normal
05/02/2026 10 PM PDT 2.75 11 0 Normal
05/02/2026 11 PM PDT 2.75 11 0 Normal
05/03/2026 12 AM PDT 2.74 11 - Normal
05/03/2026 01 AM PDT 2.74 11 0 Normal
05/03/2026 02 AM PDT 2.73 10 - Normal
05/03/2026 03 AM PDT 2.72 10 - Normal
05/03/2026 04 AM PDT 2.72 10 0 Normal
05/03/2026 05 AM PDT 2.72 10 0 Normal
05/03/2026 06 AM PDT 2.71 9 - Normal
05/03/2026 07 AM PDT 2.71 9 0 Normal
05/03/2026 08 AM PDT 2.71 9 0 Normal
05/03/2026 09 AM PDT 2.70 9 - Normal
05/03/2026 10 AM PDT 2.70 9 0 Normal
05/03/2026 11 AM PDT 2.70 9 0 Normal
05/03/2026 12 PM PDT 2.69 8 - Normal
05/03/2026 01 PM PDT 2.69 8 0 Normal
05/03/2026 02 PM PDT 2.69 8 0 Normal
05/03/2026 03 PM PDT 2.68 8 - Normal
05/03/2026 04 PM PDT 2.69 8 + Normal
05/03/2026 05 PM PDT 2.70 9 + Normal
05/03/2026 06 PM PDT 2.71 9 + Normal
05/03/2026 07 PM PDT 2.71 9 0 Normal
05/03/2026 08 PM PDT 2.72 10 + Normal
05/03/2026 09 PM PDT 2.72 10 0 Normal
05/03/2026 10 PM PDT 2.72 10 0 Normal
05/03/2026 11 PM PDT 2.72 10 0 Normal
05/04/2026 12 AM PDT 2.71 9 - Normal
05/04/2026 01 AM PDT 2.71 9 0 Normal
05/04/2026 02 AM PDT 2.70 9 - Normal
05/04/2026 03 AM PDT 2.70 9 0 Normal
05/04/2026 04 AM PDT 2.70 9 0 Normal
05/04/2026 05 AM PDT 2.69 8 - Normal
05/04/2026 06 AM PDT 2.69 8 0 Normal
05/04/2026 07 AM PDT 2.69 8 0 Normal
05/04/2026 08 AM PDT 2.68 8 - Normal
05/04/2026 09 AM PDT 2.68 8 0 Normal
05/04/2026 10 AM PDT 2.68 8 0 Normal
05/04/2026 11 AM PDT 2.68 8 0 Normal
05/04/2026 12 PM PDT 2.68 8 0 Normal
05/04/2026 01 PM PDT 2.67 8 - Normal
05/04/2026 02 PM PDT 2.66 7 - Normal
05/04/2026 03 PM PDT 2.65 7 - Normal
05/04/2026 04 PM PDT 2.66 7 + Normal
05/04/2026 05 PM PDT 2.68 8 + Normal
05/04/2026 06 PM PDT 2.69 8 + Normal
05/04/2026 07 PM PDT 2.70 9 + Normal
05/04/2026 08 PM PDT 2.70 9 0 Normal
05/04/2026 09 PM PDT 2.71 9 + Normal
05/04/2026 10 PM PDT 2.71 9 0 Normal
05/04/2026 11 PM PDT 2.70 9 - Normal
05/05/2026 12 AM PDT 2.70 9 0 Normal
05/05/2026 01 AM PDT 2.69 8 - Normal
05/05/2026 02 AM PDT 2.69 8 0 Normal
05/05/2026 03 AM PDT 2.69 8 0 Normal
05/05/2026 04 AM PDT 2.68 8 - Normal
05/05/2026 05 AM PDT 2.68 8 0 Normal
05/05/2026 06 AM PDT 2.68 8 0 Normal
05/05/2026 07 AM PDT 2.68 8 0 Normal
05/05/2026 08 AM PDT 2.67 8 - Normal
05/05/2026 09 AM PDT 2.67 8 0 Normal
05/05/2026 10 AM PDT 2.67 8 0 Normal
05/05/2026 11 AM PDT 2.67 8 0 Normal
05/05/2026 12 PM PDT 2.66 7 - Normal
05/05/2026 01 PM PDT 2.66 7 0 Normal
05/05/2026 02 PM PDT 2.66 7 0 Normal
05/05/2026 03 PM PDT 2.66 7 0 Normal
05/05/2026 04 PM PDT 2.65 7 - Normal
05/05/2026 05 PM PDT 2.65 7 0 Normal
05/05/2026 06 PM PDT 2.66 7 + Normal
05/05/2026 07 PM PDT 2.66 7 0 Normal
05/05/2026 08 PM PDT 2.67 8 + Normal
05/05/2026 09 PM PDT 2.67 8 0 Normal
05/05/2026 10 PM PDT 2.67 8 0 Normal
05/05/2026 11 PM PDT 2.67 8 0 Normal
05/06/2026 12 AM PDT 2.66 7 - Normal
05/06/2026 01 AM PDT 2.66 7 0 Normal
05/06/2026 02 AM PDT 2.66 7 0 Normal
05/06/2026 03 AM PDT 2.66 7 0 Normal
05/06/2026 04 AM PDT 2.66 7 0 Normal
05/06/2026 05 AM PDT 2.66 7 0 Normal
05/06/2026 06 AM PDT 2.65 7 - Normal
05/06/2026 07 AM PDT 2.65 7 0 Normal
05/06/2026 08 AM PDT 2.65 7 0 Normal
05/06/2026 09 AM PDT 2.65 7 0 Normal
05/06/2026 10 AM PDT 2.65 7 0 Normal
05/06/2026 11 AM PDT 2.65 7 0 Normal
05/06/2026 12 PM PDT 2.65 7 0 Normal
05/06/2026 01 PM PDT 2.64 7 - Normal
05/06/2026 02 PM PDT 2.62 6 - Normal
05/06/2026 03 PM PDT 2.61 6 - Normal
05/06/2026 04 PM PDT 2.63 6 + Normal
05/06/2026 05 PM PDT 2.66 7 + Normal
05/06/2026 06 PM PDT 2.68 8 + Normal
05/06/2026 07 PM PDT 2.68 8 0 Normal
05/06/2026 08 PM PDT 2.68 8 0 Normal
05/06/2026 09 PM PDT 2.68 8 0 Normal
05/06/2026 10 PM PDT 2.68 8 0 Normal
05/06/2026 11 PM PDT 2.67 8 - Normal
05/07/2026 12 AM PDT 2.67 8 0 Normal
05/07/2026 01 AM PDT 2.66 7 - Normal
05/07/2026 02 AM PDT 2.66 7 0 Normal
05/07/2026 03 AM PDT 2.65 7 - Normal
05/07/2026 04 AM PDT 2.65 7 0 Normal
05/07/2026 05 AM PDT 2.65 7 0 Normal
05/07/2026 06 AM PDT 2.64 7 - Normal
05/07/2026 07 AM PDT 2.64 7 0 Normal
#
# FORECAST
#
# Date & Time (Local) Stage (Feet) Flow (cfs) Trend Forecast Status
# ---------------------------------------------------------------------------------
05/07/2026 08 AM PDT 2.64 7 Normal
05/07/2026 09 AM PDT 2.64 7 0 Normal
05/07/2026 10 AM PDT 2.64 7 0 Normal
05/07/2026 11 AM PDT 2.64 7 0 Normal
05/07/2026 12 PM PDT 2.64 7 0 Normal
05/07/2026 01 PM PDT 2.64 7 0 Normal
05/07/2026 02 PM PDT 2.64 7 0 Normal
05/07/2026 03 PM PDT 2.64 7 0 Normal
05/07/2026 04 PM PDT 2.64 7 0 Normal
05/07/2026 05 PM PDT 2.64 7 0 Normal
05/07/2026 06 PM PDT 2.64 7 0 Normal
05/07/2026 07 PM PDT 2.64 7 0 Normal
05/07/2026 08 PM PDT 2.64 7 0 Normal
05/07/2026 09 PM PDT 2.64 7 0 Normal
05/07/2026 10 PM PDT 2.64 7 0 Normal
05/07/2026 11 PM PDT 2.63 6 - Normal
05/08/2026 12 AM PDT 2.63 6 0 Normal
05/08/2026 01 AM PDT 2.63 6 0 Normal
05/08/2026 02 AM PDT 2.63 6 0 Normal
05/08/2026 03 AM PDT 2.63 6 0 Normal
05/08/2026 04 AM PDT 2.63 6 0 Normal
05/08/2026 05 AM PDT 2.63 6 0 Normal
05/08/2026 06 AM PDT 2.63 6 0 Normal
05/08/2026 07 AM PDT 2.63 6 0 Normal
05/08/2026 08 AM PDT 2.63 6 0 Normal
05/08/2026 09 AM PDT 2.63 6 0 Normal
05/08/2026 10 AM PDT 2.63 6 0 Normal
05/08/2026 11 AM PDT 2.63 6 0 Normal
05/08/2026 12 PM PDT 2.63 6 0 Normal
05/08/2026 01 PM PDT 2.63 6 0 Normal
05/08/2026 02 PM PDT 2.63 6 0 Normal
05/08/2026 03 PM PDT 2.63 6 0 Normal
05/08/2026 04 PM PDT 2.63 6 0 Normal
05/08/2026 05 PM PDT 2.63 6 0 Normal
05/08/2026 06 PM PDT 2.63 6 0 Normal
05/08/2026 07 PM PDT 2.63 6 0 Normal
05/08/2026 08 PM PDT 2.63 6 0 Normal
05/08/2026 09 PM PDT 2.63 6 0 Normal
05/08/2026 10 PM PDT 2.63 6 0 Normal
05/08/2026 11 PM PDT 2.63 6 0 Normal
05/09/2026 12 AM PDT 2.63 6 0 Normal
05/09/2026 01 AM PDT 2.63 6 0 Normal
05/09/2026 02 AM PDT 2.62 6 - Normal
05/09/2026 03 AM PDT 2.62 6 0 Normal
05/09/2026 04 AM PDT 2.62 6 0 Normal
05/09/2026 05 AM PDT 2.62 6 0 Normal
05/09/2026 06 AM PDT 2.62 6 0 Normal
05/09/2026 07 AM PDT 2.62 6 0 Normal
05/09/2026 08 AM PDT 2.62 6 0 Normal
05/09/2026 09 AM PDT 2.62 6 0 Normal
05/09/2026 10 AM PDT 2.62 6 0 Normal
05/09/2026 11 AM PDT 2.62 6 0 Normal
05/09/2026 12 PM PDT 2.62 6 0 Normal
05/09/2026 01 PM PDT 2.62 6 0 Normal
05/09/2026 02 PM PDT 2.62 6 0 Normal
05/09/2026 03 PM PDT 2.62 6 0 Normal
05/09/2026 04 PM PDT 2.62 6 0 Normal
05/09/2026 05 PM PDT 2.62 6 0 Normal
05/09/2026 06 PM PDT 2.62 6 0 Normal
05/09/2026 07 PM PDT 2.62 6 0 Normal
05/09/2026 08 PM PDT 2.62 6 0 Normal
05/09/2026 09 PM PDT 2.62 6 0 Normal
05/09/2026 10 PM PDT 2.62 6 0 Normal
05/09/2026 11 PM PDT 2.62 6 0 Normal
05/10/2026 12 AM PDT 2.62 6 0 Normal
05/10/2026 01 AM PDT 2.62 6 0 Normal
05/10/2026 02 AM PDT 2.62 6 0 Normal
05/10/2026 03 AM PDT 2.62 6 0 Normal
05/10/2026 04 AM PDT 2.62 6 0 Normal
05/10/2026 05 AM PDT 2.62 6 0 Normal
05/10/2026 06 AM PDT 2.62 6 0 Normal
05/10/2026 07 AM PDT 2.62 6 0 Normal
05/10/2026 08 AM PDT 2.62 6 0 Normal
05/10/2026 09 AM PDT 2.62 6 0 Normal
05/10/2026 10 AM PDT 2.62 6 0 Normal
05/10/2026 11 AM PDT 2.61 6 - Normal
05/10/2026 12 PM PDT 2.61 6 0 Normal
05/10/2026 01 PM PDT 2.61 6 0 Normal
05/10/2026 02 PM PDT 2.61 6 0 Normal
05/10/2026 03 PM PDT 2.61 6 0 Normal
05/10/2026 04 PM PDT 2.61 6 0 Normal
05/10/2026 05 PM PDT 2.61 6 0 Normal
05/10/2026 06 PM PDT 2.61 6 0 Normal
05/10/2026 07 PM PDT 2.61 6 0 Normal
05/10/2026 08 PM PDT 2.61 6 0 Normal
05/10/2026 09 PM PDT 2.61 6 0 Normal
05/10/2026 10 PM PDT 2.61 6 0 Normal
05/10/2026 11 PM PDT 2.61 6 0 Normal
05/11/2026 12 AM PDT 2.61 6 0 Normal
05/11/2026 01 AM PDT 2.61 6 0 Normal
05/11/2026 02 AM PDT 2.61 6 0 Normal
05/11/2026 03 AM PDT 2.61 6 0 Normal
05/11/2026 04 AM PDT 2.61 6 0 Normal
05/11/2026 05 AM PDT 2.61 6 0 Normal
05/11/2026 06 AM PDT 2.61 6 0 Normal
05/11/2026 07 AM PDT 2.61 6 0 Normal
05/11/2026 08 AM PDT 2.61 6 0 Normal
05/11/2026 09 AM PDT 2.61 6 0 Normal
05/11/2026 10 AM PDT 2.61 6 0 Normal
05/11/2026 11 AM PDT 2.60 5 - Normal
05/11/2026 12 PM PDT 2.60 5 0 Normal
05/11/2026 01 PM PDT 2.60 5 0 Normal
05/11/2026 02 PM PDT 2.60 5 0 Normal
05/11/2026 03 PM PDT 2.60 5 0 Normal
05/11/2026 04 PM PDT 2.60 5 0 Normal
05/11/2026 05 PM PDT 2.60 5 0 Normal
05/11/2026 06 PM PDT 2.60 5 0 Normal
05/11/2026 07 PM PDT 2.60 5 0 Normal
05/11/2026 08 PM PDT 2.60 5 0 Normal
05/11/2026 09 PM PDT 2.60 5 0 Normal
05/11/2026 10 PM PDT 2.60 5 0 Normal
05/11/2026 11 PM PDT 2.60 5 0 Normal
05/12/2026 12 AM PDT 2.60 5 0 Normal
05/12/2026 01 AM PDT 2.60 5 0 Normal
05/12/2026 02 AM PDT 2.60 5 0 Normal
05/12/2026 03 AM PDT 2.60 5 0 Normal
05/12/2026 04 AM PDT 2.60 5 0 Normal
05/12/2026 05 AM PDT 2.60 5 0 Normal
#
# NOTE 1: Stages are rounded to the nearest hundredth (.01) of a foot.
# NOTE 2: Flows are rounded to the nearest (1) cfs.
# NOTE 3: Trends are determined using hourly change in unrounded stage and flow.
# NOTE 4: Maximum Values are determined using unrounded stage and flow.
|